STARLINK-3794 (52631 NORAD) Tracking and Keplerian Element Data

This shows tracking and keplerian element data for the satellite.

Feedback or suggestion? Click here.




ElementValue
Catalog52631
NameSTARLINK-3794
Epoch Orbit130
Epoch Day167.08334491
Epoch Year2022
RAAN280.002
Inclination53.2143
Eccentricity0.0001624
Argument of Perigee28.3662
Mean Anonmoly8.2836
Mean Motion15.73197814
Decay Rate0.00061644
L11 52631U 22052AK 22167.08334491 .00061644 00000+0 44045-3 0 9998
L22 52631 53.2143 280.0020 0001624 28.3662 8.2836 15.73197814 1306

Live tracking and technical data element details for STARLINK-3794 (NORAD 52631). STARLINK-3794 can be tracked NOW for your location showing map with azimuth and elevation plus other details from your city location.

Track the satellite on the map from your city or location and see movement details for azimuth, elevation, latitude, longitude, range, height, and movement on the map or in text.







IsCatalogInMostPopularTable: catalog: 52631, numindb: 2
Update: records affected: 1



GetName: 52631 STARLINK-3794

Hit Count: updated at: Sat, 25 Jun 2022 04:22:31 GMT